Regional Weather Roundup
Issued by NWS

Home | Current Version | Previous Version | Graphics & Text | Print | Product List | Glossary On
Versions: 1 2 3 4 5 6 7 8 9 10 11 12 13 14 15 16 17 18 19 20 21 22 23 24 25 26 27 28 29 30 31 32 33 34 35 36 37 38 39 40 41 42 43 44 45 46 47 48 49 50
000
ASUS43 KDMX 240501
RWRIA

WEATHER ROUNDUP FOR IOWA
NATIONAL WEATHER SERVICE DES MOINES IA
1100 PM CST THU FEB 23 2017

NOTE: "FAIR" INDICATES FEW OR NO CLOUDS BELOW 12,000 FEET WITH NO
SIGNIFICANT WEATHER AND/OR OBSTRUCTIONS TO VISIBILITY.

* - THESE STATIONS ARE NOT NWS STATIONS...THUS NOT UNDER NWS
QUALITY CONTROL.  THEY ALSO DO NOT REPORT WEATHER SUCH
AS PRECIPITATION OR FOG.

IAZ001>003-012>014-020>022-031>034-043>046-240600-
   NORTHWEST IOWA

CITY           SKY/WX    TMP DP  RH WIND       PRES   REMARKS
CARROLL *      RAIN      34  34 100 NE29G35   29.59F WCI  20
CHEROKEE *     LGT SNOW  31  30  99 N20G28    29.70S WCI  18
DENISON *      LGT RAIN  32  32 100 NE21G32   29.59R WCI  20
LE MARS *      LGT SNOW  30  28  93 NE18G26   29.75R VSB 3/4 WCI  18
ORANGE CITY *  LGT SNOW  28  27  93 NE20G26   29.75R WCI  15
SHELDON *      MIX PCPN  28  28 100 NE23G31   29.74S WCI  14
SIOUX CITY     SNOW      33  30  88 NE20G30   29.71R VSB 1/4 WCI  21
SPENCER        HVY SNOW  28  27  96 NE32G41   29.72F VSB 1/4 WCI  12
STORM LAKE *   MIX PCPN  30  30 100 NE35G45   29.63F VSB 1/4 WCI  14
$$

IAZ055>058-069>071-079>083-090>094-240600-
   SOUTHWEST IOWA

CITY           SKY/WX    TMP DP  RH WIND       PRES   REMARKS
ATLANTIC *     HVY RAIN  36  36 100 NE24G33   29.48F WCI  24
CLARINDA *     CLOUDY    43  43 100 N13       29.53R FOG
COUNCIL BLFS * LGT RAIN  34  34 100 N15G21    29.61R WCI  24
CRESTON *      CLOUDY    39  39 100 NE28G37   29.43F FOG     WCI  28
HARLAN  *      MIX PCPN  34  34 100 N20G25    29.62R WCI  22
LAMONI         CLOUDY    44  43  96 NE16G28   29.41F FOG
RED OAK *      HVY RAIN  39  37  93 N20G30    29.53R WCI  30
SHENANDOAH *   MIX PCPN  39  39 100 NW18G26   29.58R WCI  30
$$

IAZ047>049-059>061-072>074-084-240600-
   CENTRAL IOWA

CITY           SKY/WX    TMP DP  RH WIND       PRES   REMARKS
AMES           LGT RAIN  37  37 100 NE20G30   29.58F FOG     WCI  27
ANKENY *       LGT RAIN  39  37  93 NE18G24   29.54F WCI  30
BOONE *        LGT RAIN  34  34 100 NE28G35   29.56F WCI  20
CHARITON *     FOG       43  43 100 NE18      29.46F VSB 3/4
DES MOINES     LGT RAIN  42  39  89 NE20G30   29.51F FOG
GRINNELL*      CLOUDY    39  38  94 NE23G33   29.55S FOG     WCI  29
KNOXVILLE *    CLOUDY    41  39  93 NE17G29   29.50R FOG
MARSHALLTOWN   RAIN      37  37 100 NE23G29   29.58F FOG     WCI  26
NEWTON *       CLOUDY    39  39 100 NE20G29   29.54S FOG     WCI  30
PELLA *        CLOUDY    41  40  97 E13G21    29.53S FOG
PERRY *        LGT RAIN  36  35  96 NE18G29   29.55F WCI  25
$$

IAZ004>006-015-016-023>025-035-036-240600-
   NORTH CENTRAL IOWA

CITY           SKY/WX    TMP DP  RH WIND       PRES   REMARKS
ALGONA *       FOG       32  32 100 NE35G56   29.71F VSB 1/2 WCI  17
CLARION *      CLOUDY    34  34 100 NE30G40   29.68S WCI  20
ESTHERVILLE    FOG       27  27 100 N30       29.75F VSB 1/2 WCI  11
FORT DODGE *   CLOUDY    34  28  80 NE22G31   29.63F WCI  22
MASON CITY     LGT SNOW  32  32 100 NE26      29.73S VSB 3/4 WCI  18
FOREST CITY *  LGT SNOW  32  32 100 NE25G32   29.73F VSB 1   WCI  19
WEBSTER CITY * RAIN      34  32  93 NE31G39   29.58F WCI  20
IOWA FALLS *   LGT RAIN  34  33  95 NE21G29   29.63F WCI  23
$$

IAZ007>011-017>019-026>030-037>042-050>054-066-240600-
   NORTHEAST IOWA

CITY           SKY/WX    TMP DP  RH WIND       PRES   REMARKS
CEDAR RAPIDS   TSTM      38  38 100 NE22G31   29.56F FOG     WCI  27
CHARLES CITY * MIX PCPN  34  34 100 NE17G26   29.72F WCI  23
CLINTON *      LGT SNOW  36  34  92 NE23      29.59F FOG     WCI  24
DECORAH *      LGT SNOW  34  32  93 NE13G23   29.68F WCI  25
DUBUQUE        CLOUDY    34  34 100 NE20G32   29.63F WCI  23
MONTICELLO *   CLOUDY    37  36  93 E21G32    29.59F WCI  27
OELWEIN *      CLOUDY    34  34 100 NE23G31   29.61F WCI  22
WATERLOO       LGT SNOW  36  34  92 NE18G24   29.67R FOG     WCI  26
$$

IAZ064-065-067-068-078-240600-
   EAST CENTRAL IOWA

CITY           SKY/WX    TMP DP  RH WIND       PRES   REMARKS
DAVENPORT      MIX PCPN  37  35  92 E18G33    29.57F WCI  27
IOWA CITY      CLOUDY    40  36  86 E13G24    29.57F WCI  32
MUSCATINE *    CLOUDY    41  37  87 E18G25    29.57F
QUAD CITIES    CLOUDY    41  35  79 E20       29.58F
$$

IAZ062-063-075>077-085>089-095>099-240600-
   SOUTHEAST IOWA

CITY           SKY/WX    TMP DP  RH WIND       PRES   REMARKS
BURLINGTON     CLOUDY    46  44  93 NE16G24   29.50F
FAIRFIELD *    CLOUDY    43  41  93 E23G30    29.49F FOG
KEOKUK *       CLOUDY    48  46  93 NE9       29.47F
CENTERVILLE *  CLOUDY    46  45  93 NE8       29.44F FOG
OTTUMWA        CLOUDY    42  42 100 E23G29    29.48F FOG
WASHINGTON *   CLOUDY    39  39 100 E25       29.53F WCI  28
$$

ABBREVIATIONS USED IN REMARKS
   TC - TEMPERATURES IN CELSIUS
  WCI - WIND CHILL INDEX
   HX - HEAT INDEX
  VSB - VISIBILITY
$$




USA.gov is the U.S. government's official web portal to all federal, state and local government web resources and services.